Regional Weather Roundup
Issued by NWS Mobile, AL

Home | Current Version | Previous Version | Text Only | Print | Product List | Glossary On
Versions: 1 2 3 4 5 6 7 8 9 10 11 12 13 14 15 16 17 18 19 20 21 22 23 24 25 26 27
000
ASUS44 KMOB 290413
RWRMOB
REGIONAL WEATHER ROUNDUP
NATIONAL WEATHER SERVICE MOBILE AL
1100 PM CDT SUN MAY 28 2017

NOTE: "FAIR" INDICATES FEW OR NO CLOUDS BELOW 12,000 FEET WITH NO
      SIGNIFICANT WEATHER AND/OR OBSTRUCTIONS TO VISIBILITY.

  * THESE STATIONS ARE PART OF THE UNIVERSITY OF SOUTH ALABAMA
    MESONET AND ARE NOT UNDER NWS OR FAA QUALITY CONTROL.

ALZ061>064-290500-
COASTAL ALABAMA

CITY           SKY/WX    TMP DP  RH WIND       PRES   REMARKS
MOBILE REG APT CLOUDY    78  73  84 CALM      30.01F
BROOKLEY FIELD CLOUDY    80  76  87 N3        30.01R
USA CAMPUS*      N/A     77  73  88 CALM      30.01S
DOG RIVER*       N/A     79  75  89 N3        30.75


CITY           SKY/WX    TMP DP  RH WIND       PRES   REMARKS
GULF SHORES    CLOUDY    77  77 100 SW9       29.99R

$$

ALZ051>060-290500-
INTERIOR SOUTHWEST AND SOUTH CENTRAL ALABAMA

CITY           SKY/WX    TMP DP  RH WIND       PRES   REMARKS
GREENVILLE     MOCLDY    73  68  84 CALM      30.01R
EVERGREEN      MOCLDY    73  71  93 S3        30.02R
ATMORE*          N/A     75  72  88 CALM      30.03S
ANDALUSIA/OPP  CLOUDY    76  72  87 CALM      30.02R
ANDALUSIA*       N/A     73  72  94 CALM      30.02S
FLORALA APT    MOCLDY    73  70  90 CALM      30.05R
FLORALA*         N/A     73  72  94 CALM      30.74R

$$

FLZ001>006-290500-
WESTERN FLORIDA PANHANDLE

CITY           SKY/WX    TMP DP  RH WIND       PRES   REMARKS
PENSACOLA      CLOUDY    80  75  84 W7        30.01R
NAS PENSACOLA  CLOUDY    77  75  93 W6        29.99R
MILTON         MOCLDY    76  73  91 NW5       30.02R
WHTNG S FIELD    N/A    N/A N/A N/A MISG      30.02R


CITY           SKY/WX    TMP DP  RH WIND       PRES   REMARKS
JAY*             N/A     75  70  83 NW3       30.03R
DUKE FIELD     PTCLDY    77  73  88 NW8       30.02R
CRESTVIEW      MOCLDY    76  71  85 CALM      30.04R
VALPARAISO     MOCLDY    79  75  89 SW9       30.00R
DESTIN         CLOUDY    81  81 100 VRB6      29.99R

$$

MSZ076-079-290500-
INTERIOR SOUTHEAST MISSISSIPPI

CITY           SKY/WX    TMP DP  RH WIND       PRES   REMARKS
LEAKESVILLE*   NOT AVBL
AGRICOLA*        N/A     75  73  94 CALM      30.00

$$

MARINE OBSERVATIONS

STATION/POSITION TIME  TEMP    WIND        PRES    WAVE
                       AIR SEA DIR/SP/G            HT/PER
                 (UTC) (F)     (DEG/KT/KT) (MB)    (FT/S)
PASCAGOULA       0348   80     190/  8/ 11 1014.8F
PETIT BOIS ISLND 0348   79     210/ 11/ 13 1016.1R
GRAND BAY        0245   80     210/ 12     1015.0R
KATRINA CUT      0330   80     240/ 11     1015.2R
CEDAR POINT      0330   80     240/ 12     1015.6R
E DAUPHIN ISLAND 0300   79     200/ 10/ 14 1014.3R
MIDDLE BAY LIGHT 0330   80     210/ 18     1015.6R
USCG MOBILE BAY  0348   79 79  340/  3/  4 1016.5R
STATE DOCKS      0348   79 78              1015.7R
MEAHER PARK      0330   79     300/  7     1016.6R
FORT MORGAN      0348   80     230/ 13/ 15   N/A
12 S ORANGE BCH  0350   79 79  210/ 17/ 21 1014.3R   3/ 5
PENSACOLA BAY    0348   80 81              1015.8R
64 S DAUPHIN ISL 0350   80 80  180/ 17/ 21 1015.0R   4/ 5
67 S FORT MORGAN 0330   79     200/ 21     1015.6R

$$

SELECTED LOCATIONS ACROSS THE REGION

CITY           SKY/WX    TMP DP  RH WIND       PRES   REMARKS
NEW ORLEANS    PTCLDY    79  75  87 NW5       29.98R
GULFPORT       MOCLDY    80  76  87 VRB5      29.97S
PASCAGOULA AP  CLOUDY    79  75  87 N3        29.99R
PASCAGOULA*    NOT AVBL
HATTIESBURG    MOCLDY    76  71  85 CALM      30.01R
LAUREL         MOCLDY    73  68  83 CALM      30.04R
MERIDIAN       MOCLDY    73  72  96 W5        30.01R
JACKSON        TSTM      73  72  96 NW5       30.02R
MONTGOMERY     PTCLDY    75  65  70 SW6       30.00R
TROY           CLOUDY    71  71 100 CALM      30.02R
ASHFORD*         N/A     73  72  94 CALM      30.02S
DOTHAN         PTCLDY    76  74  93 NW5       30.04S
PANAMA CITY    MOCLDY    78  75  90 SW7       29.97R

$$





USA.gov is the U.S. government's official web portal to all federal, state and local government web resources and services.